Location: Pilipovskiye Korichintsy
(49.1833°N, 27.4667°E)
Time: 21:57:45
(UTC+00:00)

Cosmos 468 Rocket - Pass Details

Date: 14 July 2020
Orbit: 743 x 780 km, 74.0° (Epoch: 10 August)

Event Time Altitude Azimuth Distance (km) Brightness Sun altitude
Rises 00:52:21 0° 336° (NNW) 3,266 7.7 -11.1°
Reaches altitude 10° 00:54:44 10° 337° (NNW) 2,338 6.9 -10.9°
Maximum altitude 01:00:04 88° 66° (ENE) 788 4.1 -10.3°
Drops below altitude 10° 01:05:23 10° 158° (SSE) 2,329 6.2 -9.8°
Sets 01:07:46 0° 158° (SSE) 3,253 7.0 -9.6°
